Showing default

OPS 6582 (TRANSIT 5B-5), 965

Orbit data source: Space-Track

OPS 6582 (TRANSIT 5B-5), 965 is a payload satellite owned by USN BuWeps (US) in LEO that was launched on Sun, 13 Dec 1964 UTC via a THOR ABLESTAR launch vehicle from the Air Force Western Test Range (AFWTR). Payload-class satellites include a variety of spacecraft equipped with specific instruments for various scientific and technological missions. These include communications satellites like Starlink; space stations such as the ISS; scientific satellites like the Hubble; Earth observation satellites from companies like Planet Labs, Umbra, and HawkEye 360; GPS; miniature CubeSats for education and research; and military/defense satellites.

Loading next visibility...
Identifier
965, 1964-083D
Orbit
LEO
Country
Flag of USUS
Related business
Manufacturer
NAFI
Mission
Spacecraft
Bus & Motor
TRANSIT 5, Unknown motor
Mass
~54 kg wet, ~54 kg dry
Launch date (UTC)
1964-12-13 (61 years ago)
Launch vehicle
THOR ABLESTAR
Launch site
Air Force Western Test Range (AFWTR)
Object type
Payload
Rocket body
Debris
Shape & HBR
Unknown
Radar Cross Section
Medium (>0.1 m² and <1 m²)

Expand to show TLE details & history
Last TLE update: 10 hours ago

TLE from 10 hours ago
0 OPS 6582 (TRANSIT 5B-5)
1 00965U 64083D   26071.81605424  .00000078  00000-0  95878-4 0  9993
2 00965  90.0757 202.2539 0041106 197.1092 328.1163 13.57002467 30545
Epoch: 2026-03-12T19:35Z
TLE epoch observation values (Epoch: 2026-03-12T19:35:07.086Z)
Latitude
14.99815°
Longitude
-81.96597°
Altitude
1,022.985 km
Speed
7.354 km/s
True Right ascension
01h 29m 05s
True Declination
14° 54' 56"
Sunlit
Object was in daylight at epoch
Visualization orbit readout
Latitude
Unknown
Longitude
Unknown
Altitude
Unknown
Speed
Unknown
Apparent Right ascension
Unknown
Apparent Declination
Unknown
Sunlit
N/A
Visualization observer readout
Local Sidereal Time
10:04:50
Azimuth
Unknown
Elevation
Unknown
Doppler factor
Unknown
Orbital elements
Apogee altitude
1,074.153 km
Perigee altitude
1,013.137 km
Semi-major axis
7,421.782 km
Eccentricity
0.00411
Inclination
90.0757°
RAAN
202.2539°
Arg. of periapsis
197.1092°
True anomaly
327.86641°
Mean anomaly
328.1163°
Eccentric anomaly
327.99146°
Mean motion
3.39454 °/min
Orbital period
106.05 mins
BSTAR
0.000095878
Loading maneuver chart data...
Computing Atmospheric mass density...

Documentation

Showing up to 5 results
|